Location: Caltech
(34.1382°N, 118.1253°W)
Time: 15:16:51
(UTC-07:00)

Iridium 59 - Visible Passes

Search period start: 28 August 2015 00:00
Search period end: 07 September 2015 00:00
Orbit: 776 x 779 km, 86.4° (Epoch: 28 August)

Date Brightness Start Highest point End Pass type
(mag) Time Alt. Az. Time Alt. Az. Time Alt. Az.
28 Aug 5.6 03:42:47 10° N 03:46:36 50° N 03:46:36 50° N visible
29 Aug 6.5 03:09:27 10° NNE 03:12:40 33° NE 03:12:40 33° NE visible
29 Aug 6.9 04:51:36 10° NW 04:53:06 14° WNW 04:53:06 14° WNW visible
30 Aug 7.4 02:36:37 10° NNE 02:38:45 19° NE 02:38:45 19° NE visible
30 Aug 6.6 04:16:56 10° NNW 04:19:12 22° NW 04:19:12 22° NW visible
31 Aug 6.6 03:42:57 10° N 03:45:19 27° NNW 03:45:19 27° NNW visible
01 Sep 6.9 03:09:23 10° N 03:11:28 24° N 03:11:28 24° N visible
02 Sep 7.5 02:36:14 10° NNE 02:37:36 17° NNE 02:37:36 17° NNE visible
02 Sep 7.3 04:17:35 10° NW 04:18:04 12° NW 04:18:04 12° NW visible
03 Sep 8.0 02:03:40 10° NE 02:03:48 10° NE 02:03:48 10° NE visible
03 Sep 7.2 03:43:15 10° NNW 03:44:15 15° NNW 03:44:15 15° NNW visible
04 Sep 7.4 03:09:27 10° N 03:10:27 16° N 03:10:27 16° N visible
05 Sep 7.8 02:36:03 10° N 02:36:40 13° N 02:36:40 13° N visible
